Starlink 3285

operational
NORAD ID: 50181 Int'l Des: 2021-125 Owner: SPXS Country: US Constellation: starlink
LEOCIRCULAR

Starlink 3285について

説明を読み込み中...

リアルタイム位置

3D地球を読み込み中...

次回通過

高度履歴

Altitude vs Time

uPlot chart will show altitude changes over time

軌道要素

1 50181U 21125AB 25351.46664037 -.00000822 00000-0 -33557-4 0 9999
2 50181 53.2169 258.2454 0001280 84.4234 275.6905 15.08844453224193
Epoch: Dec 17, 2025 • Age: 15 hours

現在のステータス

高度 555.4 km
速度 7.58 km/s
衛星直下点 -44.04°S, 4.11°W
打ち上げ日 Dec 18, 2021
運用期間 3.9 years
タイプ internet

技術仕様

分類 Payload
質量 290.00 kg
乾燥質量 270.00 kg
総質量 290.00 kg
長さ 0.20 m
直径 2.80 m
スパン 9.00 m
形状 Box + pan
製造者 SPXS
バスタイプ Starlink
フェーズステータス In Orbit
所有者/国 SPXS/US

大規模コンステレーション

Loading constellations...